EHI
0 0 0 0 0 0 0 0 0 0 0 0 0 0 0 0 0 0 0 0 1 1 1 1 1 2 2 1 0 1 2 2 3 4 3 3 2 1 0 0 0 0 0 0
0 0 0 0 0 0 0 0 0 0 0 0 0 0 0 0 0 0 0 0 1 2 1 1 2 3 3 2 1 1 2 3 4 4 3 3 3 2 1 0 0 0 0 0
0 0 0 0 0 0 0 0 0 0 0 0 0 0 0 0 0 0 0 0 1 2 1 1 2 3 3 3 2 1 2 3 4 4 4 3 3 4 3 1 0 0 0 0
0 0 0 0 0 0 0 0 0 0 0 0 0 0 0 0 0 0 0 0 0 0 0 0 1 2 2 2 1 1 1 2 3 4 3 3 4 5 4 2 1 0 0 0
0 0 0 0 0 0 0 0 0 0 0 0 0 0 0 0 0 0 0 0 0 0 0 0 0 1 1 1 0 0 1 2 3 3 3 3 3 4 5 5 3 1 0 0
0 0 0 0 0 0 0 0 0 0 0 0 0 0 0 0 0 0 0 0 0 0 0 0 0 0 0 0 0 1 1 1 3 3 3 3 3 3 4 5 4 3 1 0
0 0 0 0 0 0 0 0 0 0 0 0 0 0 0 0 0 0 0 0 0 0 0 0 0 0 0 0 0 1 1 1 3 3 3 3 3 3 3 4 4 3 2 1
0 0 0 0 0 0 0 0 0 0 0 0 0 0 0 0 0 0 0 0 0 0 0 0 0 0 0 0 0 1 2 3 3 3 3 3 3 3 3 3 3 3 3 2
0 0 0 0 0 0 0 0 0 0 0 0 0 0 0 0 0 0 0 0 0 0 0 0 0 0 1 1 1 1 2 3 3 3 3 3 3 3 2 2 2 2 2 1
0 0 0 0 0 0 0 0 0 0 0 0 0 0 0 0 0 0 0 0 0 0 0 0 0 1 2 2 1 1 2 2 2 2 2 2 2 1 1 1 1 1 1 0
0 0 0 0 0 0 0 0 0 0 0 0 0 0 0 0 0 0 0 0 0 0 0 0 0 1 2 2 1 0 1 1 1 1 1 1 1 0 0 0 0 0 0 0
0 0 0 0 0 0 0 0 0 0 0 0 0 0 0 0 0 0 0 0 0 0 0 0 0 1 1 1 0 0 0 0 0 0 0 0 0 0 0 0 0 0 0 0
0 0 0 0 0 0 0 0 0 0 0 0 0 0 0 0 0 0 0 0 0 0 0 0 0 0 0 0 0 0 0 0 0 0 0 0 0 0 0 0 0 0 0 0
0 0 0 0 0 0 0 0 0 0 0 0 0 0 0 0 0 0 0 0 0 0 0 0 0 0 0 0 0 0 0 0 0 0 0 0 0 0 0 0 0 0 0 0
0 0 0 0 0 0 0 0 0 0 0 0 0 0 0 0 0 0 0 0 0 0 0 0 0 0 0 0 0 0 0 0 0 0 0 0 0 0 0 0 0 0 0 0
0 0 0 0 0 0 0 0 0 0 0 0 0 0 0 0 0 0 0 0 0 0 0 0 0 0 0 0 0 0 0 0 0 0 0 0 0 0 0 0 0 0 0 0
0 0 0 0 0 0 0 0 0 0 0 0 0 0 0 0 0 0 0 0 0 0 0 0 0 0 0 0 0 0 0 0 0 0 0 0 0 0 0 0 0 0 0 0
0 0 0 0 0 0 0 0 0 0 0 0 0 0 0 0 0 0 0 0 0 0 0 0 0 0 0 0 0 0 0 0 0 0 0 0 0 0 0 0 0 0 0 0
0 0 0 0 0 0 0 0 0 0 0 0 0 0 0 0 0 0 0 0 0 0 0 0 0 0 0 0 0 0 0 0 0 0 0 0 0 0 0 0 0 0 0 0
0 0 0 0 0 0 0 0 0 0 0 0 0 0 0 0 0 0 0 0 0 0 0 0 0 0 0 0 0 0 0 0 0 0 0 0 0 0 0 0 0 0 0 0
0 0 0 0 0 0 0 0 0 0 0 0 0 0 0 0 0 0 0 0 0 0 0 0 0 0 0 0 0 0 0 0 0 0 0 0 0 0 0 0 0 0 0 0
0 0 0 0 0 0 0 0 0 0 0 0 0 0 0 0 0 0 0 0 0 0 0 0 0 0 0 0 0 0 0 0 0 0 0 0 0 0 0 0 0 0 0 0
0 0 0 0 0 0 0 0 0 0 0 0 0 0 0 0 0 0 0 0 0 0 0 0 0 0 0 0 0 0 0 0 0 0 0 0 0 0 0 0 0 0 0 0
0 0 0 0 0 0 0 0 0 0 0 0 0 0 0 0 0 0 0 0 0 0 0 0 0 0 0 0 0 0 0 0 0 0 0 0 0 0 0 0 0 0 0 0
0 0 0 0 0 0 0 0 0 0 0 0 0 0 0 0 0 0 0 0 0 0 0 0 0 0 0 0 0 0 0 0 0 0 0 0 0 0 0 0 0 0 0 0
0 0 0 0 0 0 0 0 0 0 0 0 0 0 0 0 0 0 0 0 0 0 0 0 0 0 0 0 0 0 0 0 0 0 0 0 0 0 0 0 0 0 0 0
0 0 0 0 0 0 0 0 0 0 0 0 0 0 0 0 0 0 0 0 0 0 0 0 0 0 0 0 0 0 0 0 0 0 0 0 0 0 0 0 0 0 0 0
Wind_Speed
6 5 5 7 8 9 11 11 11 10 9 7 6 4 3 3 3 2 3 3 5 5 5 6 6 6 6 6 5 5 5 5 4 4 4 4 4 3 3 3 3 3 3 3
6 5 6 8 9 10 11 11 11 10 9 5 4 3 3 3 3 3 3 3 4 5 5 6 6 6 6 6 5 5 5 4 4 4 4 4 4 4 3 3 3 3 3 3
6 4 7 9 7 8 7 7 7 8 5 3 3 3 4 3 3 3 3 3 3 4 5 5 5 5 6 5 5 5 5 4 4 4 4 4 4 4 4 4 4 3 3 3
5 5 9 0 2 3 6 6 6 5 4 4 4 3 3 3 3 3 3 3 3 4 4 3 3 4 4 4 5 5 5 5 4 4 4 4 4 4 4 4 4 4 3 3
4 6 7 2 1 3 5 5 3 3 3 3 2 3 2 1 2 3 3 3 3 3 3 3 3 4 4 4 5 5 5 5 5 5 5 4 4 4 4 4 4 4 4 4
5 6 6 1 2 1 5 5 1 2 2 2 3 4 2 3 3 4 3 2 2 2 2 3 3 3 4 5 5 5 5 5 5 5 5 5 4 4 3 4 4 3 3 4
7 7 5 2 2 2 5 2 1 2 2 2 4 4 4 4 4 3 2 2 2 2 2 2 2 4 4 4 5 4 4 4 5 5 5 5 4 4 3 3 3 4 4 3
6 7 4 3 2 3 4 4 2 2 2 2 3 3 3 3 3 3 2 2 2 2 2 2 3 4 4 4 4 3 3 4 5 5 4 4 4 4 4 4 4 4 3 3
4 3 4 0 2 4 4 3 3 2 3 3 4 4 4 3 2 2 3 2 2 2 2 2 3 4 4 3 3 3 4 4 4 5 4 4 4 4 3 3 3 3 3 3
5 5 4 4 4 4 4 4 4 4 4 4 4 4 5 4 3 3 3 2 2 3 3 3 3 3 3 3 3 4 4 4 4 5 4 4 3 3 3 3 3 3 3 3
7 6 5 4 5 5 5 5 5 4 4 4 5 5 5 5 4 3 3 3 3 4 4 4 4 3 3 3 4 4 5 4 4 4 4 3 3 2 3 3 3 3 3 3
6 5 6 7 6 5 6 6 5 5 5 5 4 5 6 5 4 4 3 3 4 4 5 4 3 3 3 4 4 4 4 4 4 3 3 3 3 2 2 3 3 4 4 4
7 7 7 7 5 5 5 6 6 6 5 5 5 4 5 4 4 4 4 4 4 4 4 4 3 3 3 3 4 4 4 4 3 3 4 4 4 3 2 2 3 4 5 4
5 5 6 5 6 6 5 5 5 5 5 4 4 4 4 4 5 5 4 4 4 3 3 4 3 3 3 3 4 4 4 4 4 4 4 4 4 4 3 3 3 2 3 5
4 5 5 5 5 5 4 4 5 5 5 5 4 5 5 5 5 5 5 4 4 4 3 3 3 3 3 3 3 4 3 3 3 3 3 4 4 4 4 4 3 3 2 3
5 4 4 4 4 5 5 5 5 6 6 6 5 6 5 5 5 5 4 4 4 4 4 4 3 3 2 3 4 3 3 4 3 3 4 4 4 4 4 4 4 3 3 3
4 4 4 5 6 6 6 6 6 6 6 7 6 6 6 5 5 5 4 4 4 4 4 4 3 2 3 3 4 3 3 3 5 4 4 4 4 4 4 4 4 4 3 3
4 5 6 6 6 6 7 7 6 7 6 6 6 6 6 6 6 5 4 4 4 4 4 4 3 3 3 4 3 3 3 3 3 3 3 3 3 3 4 4 4 5 3 4
4 5 6 6 6 6 6 7 7 7 6 5 6 6 6 6 6 5 5 5 5 5 4 3 3 4 4 4 3 3 4 3 3 3 3 3 4 4 4 4 4 5 4 4
5 5 6 6 6 6 6 6 6 6 6 6 6 6 6 6 5 5 5 6 5 4 4 3 4 4 4 3 4 3 3 4 4 3 3 4 4 4 4 4 4 4 4 4
6 6 6 6 6 6 6 6 6 6 6 5 6 6 6 6 5 5 5 5 4 3 3 4 3 3 3 3 4 3 3 4 4 4 4 4 4 4 4 4 4 4 4 4
6 6 6 7 7 7 6 6 6 6 6 5 6 6 5 5 5 5 5 4 3 3 3 3 3 3 3 4 3 3 3 4 4 4 4 4 4 4 4 4 4 4 4 4
6 6 6 7 7 7 6 6 6 5 5 5 5 5 5 5 4 4 4 3 3 3 3 3 3 4 5 4 3 3 4 4 4 4 4 4 4 4 4 4 4 4 3 3
6 6 6 7 6 6 6 5 5 4 4 4 4 5 4 4 3 3 3 3 3 3 3 3 4 5 5 3 3 3 4 4 4 4 4 4 4 4 4 4 3 3 3 4
6 6 6 6 5 4 5 5 4 4 4 4 4 4 4 3 3 3 3 2 2 3 2 3 4 4 3 2 3 3 3 3 3 3 3 3 4 4 4 3 3 3 3 4
6 5 5 5 4 4 4 3 3 3 4 4 4 4 4 3 3 3 2 2 2 3 2 2 3 3 3 3 3 3 3 3 4 4 4 4 4 4 4 4 5 4 4 4
5 5 4 4 3 3 3 3 3 4 4 4 4 4 4 3 3 2 2 2 2 2 2 2 2 2 2 3 3 3 3 3 3 3 4 4 4 4 4 5 4 4 4 4
Wind_Direction
269 279 267 258 245 232 241 254 263 269 268 273 280 277 269 261 256 240 231 214 200 198 197 194 193 195 196 198 197 197 198 201 204 207 204 210 213 219 218 218 227 226 231 229
253 247 258 259 254 247 248 254 258 267 270 288 297 275 263 260 255 249 242 233 213 206 203 203 200 199 198 199 198 198 199 201 196 204 201 208 213 213 214 215 225 225 226 223
257 247 258 249 247 236 232 237 242 259 280 297 285 288 280 269 262 261 257 246 227 213 209 210 209 204 200 198 194 196 197 196 195 202 206 211 211 210 212 215 219 225 225 222
265 250 245 106 66 237 239 238 237 266 291 282 283 283 277 271 273 282 277 263 243 226 214 208 201 197 190 188 190 194 199 199 199 204 210 212 213 215 219 218 214 217 220 221
247 254 261 232 221 244 245 245 228 253 278 295 297 269 255 335 314 306 295 282 263 237 221 204 192 186 182 185 192 198 205 207 205 206 209 211 213 217 220 221 218 216 219 220
233 251 256 53 46 274 244 234 153 264 290 297 272 266 301 346 323 316 308 299 280 238 212 203 195 188 193 197 201 207 209 211 209 207 207 210 212 213 214 215 220 220 220 225
235 249 264 43 47 224 236 330 2 279 285 282 276 307 327 317 309 310 307 303 279 233 210 211 205 202 208 207 214 213 208 206 207 206 205 203 204 205 208 213 214 219 223 226
225 237 244 95 152 245 326 1 319 297 297 294 305 319 318 308 306 307 312 300 265 228 225 217 211 214 218 219 216 209 202 202 203 200 197 195 195 201 205 206 209 212 221 221
240 267 19 341 301 332 340 320 320 304 302 301 299 301 302 300 302 307 296 281 260 237 236 231 224 224 223 220 210 204 202 204 201 198 198 198 195 196 202 205 210 214 219 222
253 264 284 279 292 306 310 309 304 297 295 295 287 289 294 293 289 288 282 273 251 240 239 239 237 238 237 218 209 209 207 207 205 201 199 201 202 204 206 207 214 218 220 226
257 275 287 264 285 296 297 298 295 296 296 295 286 283 285 283 282 284 279 265 246 241 243 243 241 240 229 219 216 220 219 211 207 205 203 206 211 212 219 223 224 230 233 233
262 282 281 286 292 295 293 291 292 293 294 294 287 281 284 283 285 283 274 262 251 244 242 243 242 237 223 217 221 226 224 215 208 201 200 207 207 203 178 215 213 224 240 246
281 289 287 287 287 289 289 291 287 282 281 284 281 277 277 277 279 281 274 261 253 245 238 235 235 238 232 222 224 227 226 217 208 209 202 206 211 210 209 193 198 210 216 224
282 279 275 280 285 293 294 292 289 284 281 280 283 281 278 278 279 277 272 269 259 248 237 228 227 234 233 229 230 230 226 220 216 211 211 213 218 219 217 218 223 222 202 202
282 285 284 287 291 296 298 295 291 288 288 287 284 281 277 276 277 278 275 267 254 241 233 231 230 231 229 224 231 232 229 221 218 214 211 214 217 221 223 224 228 230 224 197
290 291 294 289 296 301 297 291 288 288 289 287 286 283 282 280 280 277 272 255 241 236 236 236 239 236 227 225 231 235 230 216 225 223 217 212 212 215 219 223 225 227 227 220
291 292 295 294 293 294 293 288 287 285 285 285 287 287 281 274 271 271 269 259 252 251 247 243 243 239 233 229 231 235 230 211 210 223 225 222 218 216 217 222 226 230 232 223
293 288 288 287 289 290 293 293 292 288 282 285 291 289 280 271 268 269 267 261 259 260 256 248 241 243 237 232 233 233 227 221 219 224 227 227 228 228 223 223 226 232 234 213
306 298 296 295 295 291 290 290 288 286 285 283 282 281 277 272 269 265 257 249 249 253 251 239 227 240 235 225 232 230 226 224 222 222 227 219 224 230 228 226 227 230 228 225
320 314 309 305 304 298 292 291 290 287 286 282 279 280 278 274 269 263 257 252 249 254 247 233 233 237 234 222 229 233 227 225 223 223 223 225 227 230 231 231 234 234 232 232
323 320 318 314 308 304 300 297 292 290 291 283 276 277 280 281 277 270 261 258 257 253 239 229 233 232 234 236 235 235 229 226 227 228 224 224 227 231 234 234 235 236 233 235
320 315 315 314 309 305 306 302 297 296 296 291 285 282 281 280 276 269 259 262 263 242 240 233 233 230 235 246 240 234 230 230 231 231 229 228 228 231 232 234 237 236 231 231
313 311 311 311 308 306 305 303 301 299 297 294 292 289 285 284 279 272 270 272 262 246 250 242 234 228 238 240 236 234 233 231 230 230 231 233 232 232 232 233 234 232 232 231
314 313 311 310 306 302 303 308 310 306 303 299 297 298 295 288 279 271 278 277 265 251 252 239 228 229 233 236 229 229 234 234 230 229 231 233 234 236 238 237 234 231 233 233
311 310 308 305 302 300 305 311 312 312 310 307 308 306 300 293 289 293 291 278 263 251 250 230 228 234 236 235 230 227 231 238 240 238 234 233 235 238 241 243 241 239 236 235
307 306 306 303 300 299 300 300 300 302 304 306 310 313 312 310 304 299 292 276 266 265 265 255 242 237 240 237 236 241 241 239 240 238 238 238 238 240 243 243 240 238 239 236
301 299 298 299 301 298 294 292 293 298 301 300 302 307 307 305 303 299 291 285 278 271 270 266 258 252 248 244 244 246 246 243 240 239 241 241 240 240 242 244 242 240 237 233